• Em Portugal
  • Lista de países
  • Para 7 dias
  • Temperatura da água
  • Mapas de satélite
  • Mapa do tempo
  • Widgets de tempo
  • user-avatar
    Iniciar Sessão

    Previsão horária em Salyan

    Hoje, 11 Dezembro, Segunda-feira

    Tempo Temperatura Precipitação Vento Pressão Humidade
    00:00 +12°C° 0 mm 2 m/s 653 mmHg 48%
    01:00 +12°C° 0 mm 2 m/s 653 mmHg 45%
    02:00 +12°C° 0 mm 2 m/s 652 mmHg 42%
    03:00 +12°C° 0 mm 2 m/s 652 mmHg 40%
    04:00 +12°C° 0 mm 2 m/s 652 mmHg 38%
    05:00 +12°C° 0 mm 2 m/s 652 mmHg 32%
    06:00 +13°C° 0 mm 1 m/s 653 mmHg 33%
    07:00 +15°C° 0 mm 1 m/s 654 mmHg 34%
    08:00 +16°C° 0 mm 1 m/s 654 mmHg 34%
    09:00 +19°C° 0 mm 1 m/s 655 mmHg 33%
    10:00 +21°C° 0 mm 1 m/s 655 mmHg 32%
    11:00 +23°C° 0 mm 1 m/s 655 mmHg 29%
    12:00 +23°C° 0 mm 1 m/s 655 mmHg 31%
    13:00 +23°C° 0 mm 2 m/s 654 mmHg 33%
    14:00 +23°C° 0 mm 2 m/s 654 mmHg 36%
    15:00 +20°C° 0 mm 1 m/s 653 mmHg 47%
    16:00 +18°C° 0 mm 1 m/s 653 mmHg 58%
    17:00 +13°C° 0 mm 0 m/s 652 mmHg 69%
    18:00 +13°C° 0 mm 1 m/s 653 mmHg 69%
    19:00 +13°C° 0 mm 1 m/s 653 mmHg 69%
    20:00 +12°C° 0 mm 1 m/s 653 mmHg 68%
    21:00 +12°C° 0 mm 1 m/s 653 mmHg 65%
    22:00 +12°C° 0 mm 1 m/s 653 mmHg 62%
    23:00 +12°C° 0 mm 1 m/s 653 mmHg 59%

    Amanhã, 12 Dezembro, Terça-feira

    Tempo Temperatura Precipitação Vento Pressão Humidade
    00:00 +11°C° 0 mm 1 m/s 653 mmHg 55%
    01:00 +11°C° 0 mm 1 m/s 652 mmHg 51%
    02:00 +11°C° 0 mm 1 m/s 652 mmHg 47%
    03:00 +10°C° 0 mm 2 m/s 652 mmHg 44%
    04:00 +10°C° 0 mm 2 m/s 652 mmHg 40%
    05:00 +10°C° 0 mm 2 m/s 652 mmHg 36%
    06:00 +12°C° 0 mm 1 m/s 653 mmHg 34%
    07:00 +13°C° 0 mm 1 m/s 654 mmHg 33%
    08:00 +15°C° 0 mm 1 m/s 655 mmHg 31%
    09:00 +16°C° 0 mm 1 m/s 655 mmHg 31%
    10:00 +17°C° 0 mm 2 m/s 655 mmHg 32%
    11:00 +18°C° 0 mm 2 m/s 656 mmHg 32%
    12:00 +18°C° 0 mm 2 m/s 655 mmHg 33%
    13:00 +18°C° 0 mm 2 m/s 655 mmHg 34%
    14:00 +19°C° 0 mm 2 m/s 654 mmHg 35%
    15:00 +17°C° 0 mm 2 m/s 654 mmHg 39%
    16:00 +16°C° 0 mm 2 m/s 653 mmHg 42%
    17:00 +14°C° 0 mm 1 m/s 652 mmHg 46%
    18:00 +13°C° 0 mm 1 m/s 653 mmHg 46%
    19:00 +12°C° 0 mm 2 m/s 653 mmHg 45%
    20:00 +12°C° 0 mm 2 m/s 653 mmHg 44%
    21:00 +10°C° 0 mm 2 m/s 653 mmHg 43%
    22:00 +10°C° 0 mm 2 m/s 653 mmHg 42%
    23:00 +10°C° 0 mm 2 m/s 653 mmHg 40%

    Depois de amanhã, 13 Dezembro, Quarta-feira

    Tempo Temperatura Precipitação Vento Pressão Humidade
    00:00 +10°C° 0 mm 2 m/s 653 mmHg 39%
    01:00 +10°C° 0 mm 2 m/s 653 mmHg 38%
    02:00 +10°C° 0 mm 2 m/s 653 mmHg 37%
    03:00 +9°C° 0 mm 2 m/s 652 mmHg 36%
    04:00 +9°C° 0 mm 2 m/s 652 mmHg 35%
    05:00 +9°C° 0 mm 2 m/s 652 mmHg 34%
    06:00 +10°C° 0 mm 2 m/s 653 mmHg 33%
    07:00 +13°C° 0 mm 1 m/s 654 mmHg 32%
    08:00 +14°C° 0 mm 1 m/s 654 mmHg 32%
    09:00 +16°C° 0 mm 1 m/s 655 mmHg 29%
    10:00 +20°C° 0 mm 1 m/s 655 mmHg 26%
    11:00 +22°C° 0 mm 1 m/s 656 mmHg 23%
    12:00 +21°C° 0 mm 2 m/s 655 mmHg 25%
    13:00 +20°C° 0 mm 2 m/s 655 mmHg 26%
    14:00 +20°C° 0 mm 2 m/s 654 mmHg 28%
    15:00 +17°C° 0 mm 2 m/s 653 mmHg 36%
    16:00 +15°C° 0 mm 1 m/s 653 mmHg 45%
    17:00 +12°C° 0 mm 1 m/s 652 mmHg 54%
    18:00 +12°C° 0 mm 1 m/s 653 mmHg 54%
    19:00 +11°C° 0 mm 1 m/s 653 mmHg 54%
    20:00 +10°C° 0 mm 2 m/s 654 mmHg 54%
    21:00 +9°C° 0 mm 2 m/s 654 mmHg 51%
    22:00 +9°C° 0 mm 2 m/s 654 mmHg 49%
    23:00 +9°C° 0 mm 2 m/s 654 mmHg 47%

    14 Dezembro, Quinta-feira

    Tempo Temperatura Precipitação Vento Pressão Humidade
    00:00 +9°C° 0 mm 2 m/s 654 mmHg 43%
    01:00 +10°C° 0 mm 2 m/s 654 mmHg 39%
    02:00 +10°C° 0 mm 2 m/s 653 mmHg 35%
    03:00 +10°C° 0 mm 2 m/s 653 mmHg 33%
    04:00 +10°C° 0 mm 2 m/s 654 mmHg 32%
    05:00 +10°C° 0 mm 2 m/s 654 mmHg 30%
    06:00 +12°C° 0 mm 2 m/s 654 mmHg 30%
    07:00 +13°C° 0 mm 2 m/s 655 mmHg 30%
    08:00 +14°C° 0 mm 2 m/s 656 mmHg 30%
    09:00 +16°C° 0 mm 2 m/s 656 mmHg 26%
    10:00 +19°C° 0 mm 2 m/s 657 mmHg 22%
    11:00 +21°C° 0 mm 2 m/s 658 mmHg 17%
    12:00 +21°C° 0 mm 2 m/s 657 mmHg 18%
    13:00 +21°C° 0 mm 2 m/s 656 mmHg 19%
    14:00 +21°C° 0 mm 2 m/s 656 mmHg 19%
    15:00 +18°C° 0 mm 2 m/s 655 mmHg 25%
    16:00 +15°C° 0 mm 2 m/s 655 mmHg 31%
    17:00 +12°C° 0 mm 1 m/s 654 mmHg 37%
    18:00 +12°C° 0 mm 1 m/s 655 mmHg 35%
    19:00 +10°C° 0 mm 2 m/s 655 mmHg 33%
    20:00 +9°C° 0 mm 2 m/s 655 mmHg 31%
    21:00 +9°C° 0 mm 2 m/s 655 mmHg 28%
    22:00 +9°C° 0 mm 2 m/s 655 mmHg 25%
    23:00 +8°C° 0 mm 2 m/s 655 mmHg 22%

    15 Dezembro, Sexta-feira

    Tempo Temperatura Precipitação Vento Pressão Humidade
    00:00 +8°C° 0 mm 2 m/s 654 mmHg 20%
    01:00 +8°C° 0 mm 2 m/s 654 mmHg 18%
    02:00 +8°C° 0 mm 2 m/s 654 mmHg 16%
    03:00 +8°C° 0 mm 2 m/s 653 mmHg 15%
    04:00 +7°C° 0 mm 2 m/s 653 mmHg 14%
    05:00 +7°C° 0 mm 2 m/s 653 mmHg 13%
    06:00 +9°C° 0 mm 2 m/s 654 mmHg 15%
    07:00 +10°C° 0 mm 2 m/s 655 mmHg 17%
    08:00 +13°C° 0 mm 2 m/s 655 mmHg 19%
    09:00 +16°C° 0 mm 2 m/s 656 mmHg 16%
    10:00 +18°C° 0 mm 2 m/s 656 mmHg 14%
    11:00 +21°C° 0 mm 2 m/s 657 mmHg 11%
    12:00 +21°C° 0 mm 3 m/s 656 mmHg 12%
    13:00 +21°C° 0 mm 3 m/s 656 mmHg 13%
    14:00 +21°C° 0 mm 3 m/s 655 mmHg 14%
    15:00 +18°C° 0 mm 2 m/s 655 mmHg 20%
    16:00 +15°C° 0 mm 2 m/s 654 mmHg 25%
    17:00 +12°C° 0 mm 2 m/s 654 mmHg 31%
    18:00 +10°C° 0 mm 2 m/s 654 mmHg 29%
    19:00 +10°C° 0 mm 2 m/s 654 mmHg 28%
    20:00 +9°C° 0 mm 2 m/s 655 mmHg 26%
    21:00 +9°C° 0 mm 2 m/s 654 mmHg 24%
    22:00 +8°C° 0 mm 2 m/s 654 mmHg 22%
    23:00 +8°C° 0 mm 2 m/s 654 mmHg 20%

    16 Dezembro, Sábado

    Tempo Temperatura Precipitação Vento Pressão Humidade
    00:00 +8°C° 0 mm 2 m/s 654 mmHg 19%
    01:00 +8°C° 0 mm 2 m/s 653 mmHg 18%
    02:00 +8°C° 0 mm 2 m/s 653 mmHg 16%
    03:00 +8°C° 0 mm 2 m/s 653 mmHg 16%
    04:00 +8°C° 0 mm 2 m/s 653 mmHg 15%
    05:00 +7°C° 0 mm 2 m/s 653 mmHg 14%
    06:00 +9°C° 0 mm 2 m/s 653 mmHg 16%
    07:00 +12°C° 0 mm 2 m/s 654 mmHg 19%
    08:00 +13°C° 0 mm 1 m/s 655 mmHg 21%
    09:00 +16°C° 0 mm 2 m/s 656 mmHg 18%
    10:00 +18°C° 0 mm 2 m/s 656 mmHg 15%
    11:00 +21°C° 0 mm 2 m/s 657 mmHg 13%
    12:00 +21°C° 0 mm 2 m/s 656 mmHg 14%
    13:00 +20°C° 0 mm 2 m/s 656 mmHg 16%
    14:00 +20°C° 0 mm 2 m/s 655 mmHg 17%
    15:00 +17°C° 0 mm 2 m/s 655 mmHg 23%
    16:00 +14°C° 0 mm 2 m/s 654 mmHg 29%
    17:00 +12°C° 0 mm 1 m/s 654 mmHg 35%
    18:00 +11°C° 0 mm 1 m/s 654 mmHg 33%
    19:00 +10°C° 0 mm 2 m/s 654 mmHg 31%
    20:00 +9°C° 0 mm 2 m/s 655 mmHg 30%
    21:00 +9°C° 0 mm 2 m/s 655 mmHg 28%
    22:00 +9°C° 0 mm 2 m/s 654 mmHg 25%
    23:00 +9°C° 0 mm 2 m/s 654 mmHg 23%
    Mostrar mais